Kirtland AFB, NM

11:38 PM MST on January 19, 2017 (GMT -0700)
Albuquerque International Sunport

Weather History for KABQ - January, 2013

Change the Weather History Date:

Saturday, January 12, 2013

  Actual Average Record
Temperature  
Mean Temperature 23 °F 36 °F  
Max Temperature 32 °F 46 °F 62 °F (1953)
Min Temperature 13 °F 26 °F -1 °F (1963)
Degree Days  
Heating Degree Days 42 29  
Month to date heating degree days 424 352  
Since 1 July heating degree days 1928 2109  
Cooling Degree Days 0 0  
Month to date cooling degree days 0 0  
Year to date cooling degree days 0 0  
Moisture  
Dew Point -5 °F    
Average Humidity 35    
Maximum Humidity 53    
Minimum Humidity 17    
Precipitation  
Precipitation 0.00 in 0.01 in 0.36 in (1941)
Month to date precipitation T 0.15  
Year to date precipitation T 0.15  
Snow  
Snow 0.00 in - - ()
Month to date snowfall T  
Since 1 July snowfall 0.5  
Snow Depth 0.00 in    
Sea Level Pressure  
Sea Level Pressure 30.00 in    
Wind  
Wind Speed 7 mph (NNW)    
Max Wind Speed 20 mph    
Max Gust Speed 23 mph    
Visibility 10 miles    
Events      
T = Trace of Precipitation, MM = Missing Value Source: NWS Daily Summary

Daily Weather History Graph

Daily Weather History Graph

Search for Another Location

Airport or City:

Trip Planner

Search our weather history database for the weather conditions in past years. The results will help you decide how hot, cold, wet, or windy it might be!

Date:

Astronomy

Jan. 12, 2013 Rise Set
Actual Time 7:14 AM MST 5:15 PM MST
Civil Twilight 6:46 AM MST 5:43 PM MST
Nautical Twilight 6:15 AM MST 6:14 PM MST
Astronomical Twilight 5:45 AM MST 6:44 PM MST
Moon 7:39 AM MST (1/12) 6:42 PM MST (1/12)
Length of Visible Light 10h 56m
Length of Day
10h 00m
New Moon, 1% of the Moon is Illuminated
Jan 12
New Moon
Jan 18
First Quarter
Jan 26
Full
Feb 3
Last Quarter
Feb 10
New

Hourly Weather History & Observations

Time (MST) Temp. Windchill Dew Point Humidity Pressure Visibility Wind Dir Wind Speed Gust Speed Precip Events Conditions
12:52 AM 19.0 °F 12.3 °F -5.1 °F 34% 29.96 in 10.0 mi NNW 4.6 mph - N/A   Mostly Cloudy
1:52 AM 17.1 °F 8.7 °F -5.1 °F 37% 29.95 in 10.0 mi North 5.8 mph - N/A   Scattered Clouds
2:52 AM 17.1 °F 11.7 °F -5.1 °F 37% 29.96 in 10.0 mi NNE 3.5 mph - N/A   Scattered Clouds
3:52 AM 15.1 °F 7.7 °F -5.1 °F 41% 29.95 in 10.0 mi NNE 4.6 mph - N/A   Scattered Clouds
4:52 AM 14.0 °F 5.1 °F -5.1 °F 43% 29.95 in 10.0 mi NNE 5.8 mph - N/A   Scattered Clouds
5:52 AM 14.0 °F 3.9 °F -4.0 °F 45% 29.99 in 10.0 mi NE 6.9 mph - N/A   Scattered Clouds
6:52 AM 14.0 °F 2.9 °F -2.9 °F 47% 30.01 in 10.0 mi North 8.1 mph - N/A   Scattered Clouds
7:52 AM 12.9 °F 2.6 °F -2.9 °F 49% 30.05 in 10.0 mi North 6.9 mph - N/A   Scattered Clouds
8:52 AM 17.1 °F 6.6 °F -2.9 °F 41% 30.06 in 10.0 mi North 8.1 mph - N/A   Scattered Clouds
9:52 AM 19.0 °F 12.3 °F -2.0 °F 40% 30.05 in 10.0 mi NNW 4.6 mph - N/A   Scattered Clouds
10:52 AM 24.8 °F 19.1 °F -2.2 °F 31% 29.92 in 10.0 mi NNW 4.6 mph - N/A   Scattered Clouds
11:52 AM 27.0 °F 23.0 °F -4.0 °F 26% 29.96 in 10.0 mi West 3.5 mph - N/A   Scattered Clouds
12:52 PM 28.9 °F 23.9 °F -4.0 °F 24% 29.94 in 10.0 mi West 4.6 mph - N/A   Scattered Clouds
1:52 PM 30.9 °F - -5.1 °F 21% 29.92 in 10.0 mi Calm Calm - N/A   Scattered Clouds
2:52 PM 30.0 °F 23.2 °F -9.0 °F 18% 29.93 in 10.0 mi WNW 6.9 mph - N/A   Mostly Cloudy
3:52 PM 28.9 °F 20.4 °F -4.0 °F 24% 29.96 in 10.0 mi NNW 9.2 mph - N/A   Mostly Cloudy
4:15 PM 28.4 °F 18.0 °F 1.4 °F 31% 29.87 in 10.0 mi WNW 12.7 mph - N/A   Mostly Cloudy
4:52 PM 27.0 °F 14.7 °F -0.9 °F 30% 30.00 in 10.0 mi WNW 16.1 mph - N/A   Mostly Cloudy
5:52 PM 26.1 °F 15.0 °F -4.0 °F 27% 30.03 in 10.0 mi NNW 12.7 mph - N/A   Mostly Cloudy
6:52 PM 25.0 °F 14.2 °F -11.9 °F 19% 30.04 in 10.0 mi NNW 11.5 mph - N/A   Mostly Cloudy
7:52 PM 24.1 °F 13.7 °F -11.0 °F 21% 30.06 in 10.0 mi NNW 10.4 mph - N/A   Mostly Cloudy
8:52 PM 21.9 °F 12.5 °F -9.9 °F 24% 30.08 in 10.0 mi NNW 8.1 mph - N/A   Partly Cloudy
9:52 PM 19.9 °F 12.1 °F -9.0 °F 27% 30.09 in 10.0 mi NNW 5.8 mph - N/A   Partly Cloudy
11:52 PM 17.1 °F - -7.1 °F 34% 30.11 in 10.0 mi Calm Calm - N/A   Scattered Clouds